Find Starlink 32750

NORAD ID: 62572 Int'l Des: 2025-006 Owner: SPXS Country: US Constellation: starlink operational
LEOCIRCULAR

リアルタイム位置

3D地球を読み込み中...

Starlink 32750について

説明を読み込み中...

次回通過

Passes for default location (London). Set your location on the main map for personalized predictions.

高度履歴

Loading altitude history...

軌道要素

1 62572U 25006U 26123.65666153 .00021668 00000-0 79422-3 0 9997
2 62572 43.0014 341.7549 0001220 276.1604 83.9109 15.27595707 73277
Epoch: May 3, 2026 • Age: 14 hours

現在のステータス

高度 494.1 km
速度 7.62 km/s
衛星直下点 -39.94°S, 30.56°W
打ち上げ日 Jan 10, 2025
運用期間 1.3 years
タイプ internet

技術仕様

分類 Payload
質量 730.00 kg
乾燥質量 700.00 kg
総質量 730.00 kg
長さ 0.30 m
直径 4.10 m
スパン 29.00 m
形状 Box + pan
製造者 SPXS
バスタイプ Starlink V2M
フェーズステータス In Orbit
所有者/国 SPXS/US

Most Searched